| time (UTC) | temp F | wind direction | speed knots | gust knots | rain 1hr in | rain 24hr in | rain mn in | humidity % | barometer mb |
| 20260504110348 | 48 | 165 | 0.9 | 4.3 | 0.00 | 0.00 | 0.00 | 74 | 1014.8 |
| 20260504100221 | 43 | 173 | 1.7 | 5.2 | 0.00 | 0.00 | 0.00 | 75 | 1015.0 |
| 20260504081954 | 44 | 190 | 1.7 | 7.0 | 0.00 | 0.00 | 0.00 | 69 | 1015.1 |
| 20260504081444 | 43 | 167 | 1.7 | 7.0 | 0.00 | 0.00 | 0.00 | 69 | 1015.1 |
| 20260504080939 | 43 | 157 | 1.7 | 5.2 | 0.00 | 0.00 | 0.00 | 70 | 1015.0 |
| 20260504080432 | 42 | 184 | 1.7 | 4.3 | 0.00 | 0.00 | 0.00 | 70 | 1015.0 |
| 20260504080144 | 43 | 150 | 1.7 | 4.3 | 0.00 | 0.00 | 0.00 | 69 | 1015.0 |
| 20260504050333 | 43 | 161 | 0.9 | 1.7 | 0.00 | 0.00 | 0.00 | 70 | 1015.2 |
| 20260504045832 | 43 | 153 | 0.9 | 3.5 | 0.00 | 0.00 | 0.00 | 70 | 1015.1 |
| 20260504045333 | 43 | 176 | 1.7 | 3.5 | 0.00 | 0.00 | 0.00 | 70 | 1015.2 |
| 20260504044834 | 43 | 169 | 1.7 | 3.5 | 0.00 | 0.00 | 0.00 | 70 | 1015.2 |
| 20260504044333 | 43 | 171 | 1.7 | 3.5 | 0.00 | 0.00 | 0.00 | 71 | 1015.2 |
| 20260504043832 | 42 | 161 | 1.7 | 3.5 | 0.00 | 0.00 | 0.00 | 71 | 1015.1 |
| 20260504043556 | 42 | 153 | 1.7 | 3.5 | 0.00 | 0.00 | 0.00 | 72 | 1015.1 |
| 20260504042832 | 42 | 173 | 1.7 | 3.5 | 0.00 | 0.00 | 0.00 | 72 | 1015.1 |
| 20260504042333 | 42 | 188 | 0.9 | 2.6 | 0.00 | 0.00 | 0.00 | 71 | 1014.9 |
| 20260504041833 | 43 | 164 | 0.9 | 1.7 | 0.00 | 0.00 | 0.00 | 70 | 1014.8 |
| 20260504041332 | 43 | 164 | 0.9 | 1.7 | 0.00 | 0.00 | 0.00 | 70 | 1014.7 |
| 20260504040832 | 43 | 164 | 0.9 | 1.7 | 0.00 | 0.00 | 0.00 | 71 | 1014.8 |
| 20260504040336 | 43 | 157 | 0.9 | 3.5 | 0.00 | 0.00 | 0.00 | 70 | 1014.8 |
| 20260504040050 | 43 | 160 | 0.9 | 3.5 | 0.00 | 0.00 | 0.00 | 71 | 1014.8 |
| 20260504035321 | 42 | 169 | 0.9 | 2.6 | 0.00 | 0.00 | 0.00 | 71 | 1014.7 |
| 20260504034815 | 43 | 160 | 0.9 | 2.6 | 0.00 | 0.00 | 0.00 | 70 | 1014.7 |
| 20260504034308 | 43 | 151 | 0.9 | 3.5 | 0.00 | 0.00 | 0.00 | 69 | 1014.7 |
| 20260504033757 | 43 | 165 | 0.9 | 3.5 | 0.00 | 0.00 | 0.00 | 70 | 1014.6 |
| 20260504033251 | 43 | 163 | 0.9 | 1.7 | 0.00 | 0.00 | 0.00 | 70 | 1014.6 |
| 20260504032745 | 43 | 161 | 0.9 | 1.7 | 0.00 | 0.00 | 0.00 | 70 | 1014.6 |
| 20260504032234 | 43 | 161 | 0.9 | 1.7 | 0.00 | 0.00 | 0.00 | 69 | 1014.6 |
| 20260504031729 | 43 | 161 | 0.9 | 1.7 | 0.00 | 0.00 | 0.00 | 68 | 1014.6 |
| 20260504031223 | 44 | 163 | 0.9 | 3.5 | 0.00 | 0.00 | 0.00 | 67 | 1014.5 |
| 20260504030712 | 44 | 164 | 0.9 | 3.5 | 0.00 | 0.00 | 0.00 | 67 | 1014.5 |
| 20260504030206 | 44 | 164 | 0.0 | 1.7 | 0.00 | 0.00 | 0.00 | 66 | 1014.5 |
| 20260504025701 | 44 | 157 | 0.0 | 2.6 | 0.00 | 0.00 | 0.00 | 66 | 1014.4 |
| 20260504025151 | 44 | 153 | 0.0 | 2.6 | 0.00 | 0.00 | 0.00 | 67 | 1014.3 |
| 20260504024644 | 44 | 157 | 0.0 | 0.0 | 0.00 | 0.00 | 0.00 | 67 | 1014.3 |
| 20260504024138 | 44 | 161 | 0.0 | 0.0 | 0.00 | 0.00 | 0.00 | 67 | 1014.3 |
| 20260504023629 | 44 | 173 | 0.0 | 0.0 | 0.00 | 0.00 | 0.00 | 66 | 1014.4 |
| 20260504023123 | 44 | 173 | 0.0 | 0.9 | 0.00 | 0.00 | 0.00 | 65 | 1014.4 |
| 20260504022616 | 45 | 172 | 0.0 | 1.7 | 0.00 | 0.00 | 0.00 | 65 | 1014.4 |
| 20260504022106 | 45 | 155 | 0.9 | 1.7 | 0.00 | 0.00 | 0.00 | 65 | 1014.4 |
| 20260504021601 | 45 | 156 | 0.9 | 1.7 | 0.00 | 0.00 | 0.00 | 65 | 1014.5 |
| 20260504021055 | 45 | 176 | 0.0 | 1.7 | 0.00 | 0.00 | 0.00 | 64 | 1014.5 |
| 20260504020544 | 46 | 186 | 0.9 | 1.7 | 0.00 | 0.00 | 0.00 | 63 | 1014.5 |
| 20260504020039 | 46 | 186 | 0.9 | 2.6 | 0.00 | 0.00 | 0.00 | 64 | 1014.4 |
| 20260504015533 | 46 | 180 | 0.0 | 2.6 | 0.00 | 0.00 | 0.00 | 63 | 1014.4 |
| 20260504015239 | 47 | 156 | 0.0 | 0.0 | 0.00 | 0.00 | 0.00 | 63 | 1014.5 |
| 20260504014517 | 46 | 163 | 0.0 | 0.0 | 0.00 | 0.00 | 0.00 | 62 | 1014.4 |
| 20260504014011 | 47 | 163 | 0.0 | 0.0 | 0.00 | 0.00 | 0.00 | 61 | 1014.3 |
| 20260504013500 | 47 | 163 | 0.0 | 0.0 | 0.00 | 0.00 | 0.00 | 60 | 1014.3 |
| 20260504012955 | 48 | 163 | 0.0 | 0.0 | 0.00 | 0.00 | 0.00 | 58 | 1014.2 |
| 20260504012449 | 48 | 189 | 0.0 | 2.6 | 0.00 | 0.00 | 0.00 | 59 | 1014.2 |
| 20260504011938 | 48 | 189 | 0.9 | 2.6 | 0.00 | 0.00 | 0.00 | 59 | 1014.1 |
| 20260504011433 | 49 | 181 | 0.9 | 3.5 | 0.00 | 0.00 | 0.00 | 57 | 1014.0 |
| 20260504010927 | 49 | 182 | 1.7 | 3.5 | 0.00 | 0.00 | 0.00 | 55 | 1014.0 |
| 20260504010416 | 49 | 173 | 1.7 | 2.6 | 0.00 | 0.00 | 0.00 | 55 | 1014.0 |
| 20260504005911 | 49 | 185 | 0.9 | 2.6 | 0.00 | 0.00 | 0.00 | 55 | 1013.9 |
| 20260504005405 | 49 | 227 | 0.9 | 2.6 | 0.00 | 0.00 | 0.00 | 54 | 1013.9 |
| 20260504004854 | 50 | 220 | 0.9 | 2.6 | 0.00 | 0.00 | 0.00 | 54 | 1013.8 |
| 20260504004349 | 51 | 209 | 0.9 | 2.6 | 0.00 | 0.00 | 0.00 | 52 | 1013.8 |
| 20260504003843 | 51 | 190 | 1.7 | 4.3 | 0.00 | 0.00 | 0.00 | 51 | 1013.8 |
| 20260504003333 | 51 | 186 | 1.7 | 4.3 | 0.00 | 0.00 | 0.00 | 50 | 1013.8 |
| 20260504002827 | 52 | 182 | 1.7 | 3.5 | 0.00 | 0.00 | 0.00 | 50 | 1013.7 |
| 20260504002321 | 52 | 186 | 1.7 | 3.5 | 0.00 | 0.00 | 0.00 | 49 | 1013.6 |
| 20260504001810 | 52 | 188 | 1.7 | 3.5 | 0.00 | 0.00 | 0.00 | 49 | 1013.5 |
| 20260504001524 | 53 | 198 | 2.6 | 4.3 | 0.00 | 0.00 | 0.00 | 48 | 1013.4 |
| 20260504000758 | 53 | 200 | 1.7 | 4.3 | 0.00 | 0.00 | 0.00 | 48 | 1013.5 |
| 20260504000249 | 54 | 199 | 2.6 | 5.2 | 0.00 | 0.00 | 0.00 | 46 | 1013.3 |
| 20260503235743 | 54 | 189 | 2.6 | 5.2 | 0.00 | 0.00 | 0.00 | 45 | 1013.4 |
| 20260503235236 | 55 | 208 | 2.6 | 7.0 | 0.00 | 0.00 | 0.00 | 45 | 1013.3 |
| 20260503234726 | 55 | 208 | 2.6 | 7.0 | 0.00 | 0.00 | 0.00 | 46 | 1013.2 |
| 20260503234707 | 55 | 224 | 2.6 | 6.1 | 0.00 | 0.00 | 0.00 | 45 | 1013.1 |
| 20260503233714 | 56 | 209 | 3.5 | 6.1 | 0.00 | 0.00 | 0.00 | 44 | 1013.2 |
| 20260503233205 | 56 | 207 | 4.3 | 7.0 | 0.00 | 0.00 | 0.00 | 43 | 1013.1 |
| 20260503232700 | 57 | 201 | 5.2 | 11.3 | 0.00 | 0.00 | 0.00 | 43 | 1013.1 |
| 20260503232153 | 57 | 217 | 5.2 | 11.3 | 0.00 | 0.00 | 0.00 | 41 | 1013.1 |
| 20260503231643 | 57 | 236 | 6.1 | 10.4 | 0.00 | 0.00 | 0.00 | 41 | 1013.2 |
| 20260503231136 | 57 | 213 | 6.1 | 10.4 | 0.00 | 0.00 | 0.00 | 41 | 1013.2 |
| 20260503230637 | 58 | 224 | 6.1 | 13.0 | 0.00 | 0.00 | 0.00 | 41 | 1013.1 |
| 20260503230358 | 58 | 205 | 7.0 | 13.0 | 0.00 | 0.00 | 0.00 | 41 | 1013.1 |
| 20260503225631 | 58 | 210 | 7.0 | 13.0 | 0.00 | 0.00 | 0.00 | 39 | 1013.1 |
| 20260503225131 | 58 | 215 | 7.0 | 13.0 | 0.00 | 0.00 | 0.00 | 40 | 1013.1 |
| 20260503224632 | 58 | 221 | 7.0 | 12.2 | 0.00 | 0.00 | 0.00 | 41 | 1013.0 |
| 20260503224132 | 58 | 225 | 6.1 | 13.0 | 0.00 | 0.00 | 0.00 | 40 | 1013.0 |
| 20260503223631 | 58 | 206 | 5.2 | 13.0 | 0.00 | 0.00 | 0.00 | 41 | 1013.0 |
| 20260503223130 | 58 | 256 | 6.1 | 11.3 | 0.00 | 0.00 | 0.00 | 42 | 1012.9 |
| 20260503222632 | 59 | 249 | 6.1 | 11.3 | 0.00 | 0.00 | 0.00 | 41 | 1012.9 |
| 20260503222131 | 59 | 253 | 5.2 | 10.4 | 0.00 | 0.00 | 0.00 | 41 | 1013.0 |
| 20260503221631 | 59 | 239 | 7.0 | 11.3 | 0.00 | 0.00 | 0.00 | 40 | 1012.9 |
| 20260503221359 | 58 | 250 | 7.8 | 11.3 | 0.00 | 0.00 | 0.00 | 38 | 1013.0 |
| 20260503220631 | 58 | 226 | 7.0 | 12.2 | 0.00 | 0.00 | 0.00 | 41 | 1013.0 |
| 20260503220131 | 59 | 263 | 6.1 | 12.2 | 0.00 | 0.00 | 0.00 | 39 | 1013.0 |
| 20260503215632 | 59 | 223 | 7.0 | 13.9 | 0.00 | 0.00 | 0.00 | 41 | 1013.1 |
| 20260503215131 | 59 | 223 | 7.8 | 14.8 | 0.00 | 0.00 | 0.00 | 38 | 1013.0 |
| 20260503214630 | 59 | 225 | 7.0 | 14.8 | 0.00 | 0.00 | 0.00 | 40 | 1013.0 |
| 20260503214130 | 59 | 297 | 8.7 | 19.1 | 0.00 | 0.00 | 0.00 | 41 | 1013.0 |
| 20260503213632 | 59 | 259 | 8.7 | 19.1 | 0.00 | 0.00 | 0.00 | 38 | 1012.9 |
| 20260503213131 | 59 | 253 | 8.7 | 17.4 | 0.00 | 0.00 | 0.00 | 38 | 1013.0 |
| 20260503212631 | 59 | 237 | 8.7 | 17.4 | 0.00 | 0.00 | 0.00 | 40 | 1013.0 |
| 20260503212131 | 59 | 239 | 8.7 | 15.6 | 0.00 | 0.00 | 0.00 | 39 | 1012.9 |
| 20260503211632 | 59 | 205 | 9.6 | 16.5 | 0.00 | 0.00 | 0.00 | 39 | 1012.9 |
| 20260503211130 | 59 | 213 | 7.8 | 16.5 | 0.00 | 0.00 | 0.00 | 39 | 1012.9 |
| 20260503210632 | 59 | 194 | 7.0 | 13.9 | 0.00 | 0.00 | 0.00 | 38 | 1012.9 |
| 20260503210130 | 59 | 209 | 7.8 | 16.5 | 0.00 | 0.00 | 0.00 | 40 | 1013.0 |
| 20260503205859 | 59 | 209 | 9.6 | 17.4 | 0.00 | 0.00 | 0.00 | 40 | 1012.9 |
| 20260503205130 | 58 | 232 | 9.6 | 17.4 | 0.00 | 0.00 | 0.00 | 39 | 1012.9 |
| 20260503204631 | 58 | 233 | 8.7 | 20.9 | 0.00 | 0.00 | 0.00 | 39 | 1012.9 |
| 20260503204130 | 59 | 222 | 7.8 | 20.9 | 0.00 | 0.00 | 0.00 | 37 | 1012.9 |
| 20260503203630 | 59 | 227 | 7.8 | 14.8 | 0.00 | 0.00 | 0.00 | 39 | 1013.0 |
| 20260503203130 | 58 | 189 | 8.7 | 17.4 | 0.00 | 0.00 | 0.00 | 40 | 1013.1 |
| 20260503202630 | 58 | 286 | 8.7 | 17.4 | 0.00 | 0.00 | 0.00 | 38 | 1013.0 |
| 20260503202132 | 58 | 222 | 7.8 | 16.5 | 0.00 | 0.00 | 0.00 | 41 | 1013.0 |
| 20260503201631 | 58 | 236 | 8.7 | 21.7 | 0.00 | 0.00 | 0.00 | 42 | 1013.1 |
| 20260503201134 | 58 | 239 | 10.4 | 21.7 | 0.00 | 0.00 | 0.00 | 40 | 1013.2 |
| 20260503200858 | 58 | 205 | 9.6 | 17.4 | 0.00 | 0.00 | 0.00 | 42 | 1013.3 |
| 20260503200134 | 58 | 235 | 8.7 | 17.4 | 0.00 | 0.00 | 0.00 | 40 | 1013.3 |
| 20260503195633 | 58 | 182 | 8.7 | 19.1 | 0.00 | 0.00 | 0.00 | 44 | 1013.4 |
| 20260503195128 | 57 | 212 | 11.3 | 22.6 | 0.00 | 0.00 | 0.00 | 43 | 1013.5 |
| 20260503194622 | 57 | 212 | 11.3 | 22.6 | 0.00 | 0.00 | 0.00 | 40 | 1013.5 |
| 20260503194112 | 58 | 261 | 10.4 | 20.9 | 0.00 | 0.00 | 0.00 | 43 | 1013.5 |
| 20260503193823 | 57 | 269 | 11.3 | 19.1 | 0.00 | 0.00 | 0.00 | 45 | 1013.6 |
| 20260503193059 | 57 | 222 | 10.4 | 18.2 | 0.00 | 0.00 | 0.00 | 44 | 1013.6 |
| 20260503192550 | 57 | 253 | 9.6 | 19.1 | 0.00 | 0.00 | 0.00 | 49 | 1013.7 |
| 20260503192044 | 57 | 275 | 9.6 | 19.1 | 0.00 | 0.00 | 0.00 | 43 | 1013.7 |
| 20260503191546 | 57 | 248 | 8.7 | 17.4 | 0.00 | 0.00 | 0.00 | 45 | 1013.9 |
| 20260503191308 | 56 | 215 | 7.8 | 17.4 | 0.00 | 0.00 | 0.00 | 47 | 1013.9 |
| 20260503190538 | 55 | 281 | 7.8 | 17.4 | 0.00 | 0.00 | 0.00 | 49 | 1013.8 |
| 20260503190258 | 54 | 259 | 8.7 | 17.4 | 0.00 | 0.00 | 0.00 | 44 | 1014.0 |
| 20260503185536 | 55 | 219 | 8.7 | 17.4 | 0.00 | 0.00 | 0.00 | 44 | 1013.9 |
| 20260503185252 | 56 | 266 | 9.6 | 18.2 | 0.00 | 0.00 | 0.00 | 49 | 1014.0 |
| 20260503184537 | 54 | 301 | 10.4 | 18.2 | 0.00 | 0.00 | 0.00 | 44 | 1014.1 |
| 20260503184258 | 56 | 224 | 10.4 | 19.1 | 0.00 | 0.00 | 0.00 | 44 | 1014.1 |
| 20260503183542 | 55 | 218 | 10.4 | 20.0 | 0.00 | 0.00 | 0.00 | 44 | 1014.1 |
| 20260503183036 | 55 | 228 | 9.6 | 20.0 | 0.00 | 0.00 | 0.00 | 45 | 1014.1 |
| 20260503182537 | 56 | 218 | 9.6 | 20.9 | 0.00 | 0.00 | 0.00 | 47 | 1014.2 |
| 20260503182038 | 55 | 231 | 8.7 | 20.9 | 0.00 | 0.00 | 0.00 | 45 | 1014.1 |
| 20260503181536 | 54 | 225 | 10.4 | 18.2 | 0.00 | 0.00 | 0.00 | 45 | 1014.1 |
| 20260503181037 | 55 | 282 | 11.3 | 20.0 | 0.00 | 0.00 | 0.00 | 46 | 1014.2 |
| 20260503180531 | 56 | 254 | 8.7 | 20.0 | 0.00 | 0.00 | 0.00 | 45 | 1014.3 |
| 20260503180028 | 56 | 222 | 8.7 | 18.2 | 0.00 | 0.00 | 0.00 | 46 | 1014.3 |
| 20260503175528 | 56 | 321 | 8.7 | 18.2 | 0.00 | 0.00 | 0.00 | 50 | 1014.2 |
| 20260503175033 | 55 | 249 | 7.8 | 15.6 | 0.00 | 0.00 | 0.00 | 47 | 1014.3 |
| 20260503174529 | 54 | 219 | 9.6 | 21.7 | 0.00 | 0.00 | 0.00 | 45 | 1014.4 |
| 20260503174255 | 54 | 240 | 10.4 | 21.7 | 0.00 | 0.00 | 0.00 | 48 | 1014.4 |
| 20260503173529 | 53 | 269 | 11.3 | 22.6 | 0.00 | 0.00 | 0.00 | 47 | 1014.3 |
| 20260503173512 | 54 | 254 | 10.4 | 22.6 | 0.00 | 0.00 | 0.00 | 45 | 1014.4 |
| 20260503172529 | 54 | 242 | 8.7 | 21.7 | 0.00 | 0.00 | 0.00 | 45 | 1014.4 |
| 20260503172028 | 54 | 244 | 9.6 | 17.4 | 0.00 | 0.00 | 0.00 | 48 | 1014.4 |
| 20260503171528 | 54 | 231 | 11.3 | 20.9 | 0.00 | 0.00 | 0.00 | 44 | 1014.6 |
| 20260503171030 | 54 | 284 | 10.4 | 21.7 | 0.00 | 0.00 | 0.00 | 46 | 1014.6 |
| 20260503170529 | 54 | 254 | 10.4 | 21.7 | 0.00 | 0.00 | 0.00 | 47 | 1014.8 |
| 20260503150452 | 50 | 211 | 9.6 | 18.2 | 0.00 | 0.00 | 0.00 | 54 | 1015.2 |
| 20260503140205 | 48 | 242 | 7.8 | 14.8 | 0.00 | 0.00 | 0.00 | 60 | 1015.2 |
| 20260503130952 | 46 | 227 | 8.7 | 15.6 | 0.00 | 0.00 | 0.00 | 63 | 1014.9 |
| 20260503130456 | 46 | 209 | 8.7 | 20.0 | 0.00 | 0.00 | 0.00 | 63 | 1014.9 |